TimeEDT,TemperatureF,Dew PointF,Humidity,Sea Level PressureIn,VisibilityMPH,Wind Direction,Wind SpeedMPH,Gust SpeedMPH,PrecipitationIn,Events,Conditions,WindDirDegrees,DateUTC
12:40 AM,44.6,39.2,81,29.93,10.0,Calm,Calm,-,N/A,,Overcast,0,2012-03-14 04:40:00
12:51 AM,44.1,37.9,79,29.95,10.0,SW,3.5,-,N/A,,Mostly Cloudy,230,2012-03-14 04:51:00
1:51 AM,35.1,34.0,96,29.96,6.0,Calm,Calm,-,N/A,,Clear,0,2012-03-14 05:51:00
2:51 AM,37.9,35.1,89,29.96,10.0,SW,4.6,-,N/A,,Clear,230,2012-03-14 06:51:00
3:51 AM,32.0,30.0,92,29.96,10.0,SSW,9.2,-,N/A,,Clear,200,2012-03-14 07:51:00
4:51 AM,34.0,32.0,92,29.98,10.0,WSW,4.6,-,N/A,,Clear,250,2012-03-14 08:51:00
5:20 AM,35.6,32.0,87,29.95,10.0,SW,9.2,16.1,N/A,,Mostly Cloudy,230,2012-03-14 09:20:00
5:51 AM,37.0,32.0,82,30.00,10.0,WSW,8.1,17.3,N/A,,Overcast,240,2012-03-14 09:51:00
6:51 AM,36.0,30.9,82,30.02,10.0,WSW,6.9,-,N/A,,Overcast,240,2012-03-14 10:51:00
7:51 AM,36.0,30.9,82,30.06,10.0,WSW,5.8,-,N/A,,Overcast,240,2012-03-14 11:51:00
8:51 AM,36.0,30.9,82,30.08,10.0,WSW,6.9,-,N/A,,Overcast,240,2012-03-14 12:51:00
9:51 AM,36.0,30.9,82,30.10,10.0,WSW,6.9,-,N/A,,Overcast,240,2012-03-14 13:51:00
10:51 AM,37.0,34.0,89,30.09,9.0,WSW,5.8,-,0.00,,Overcast,240,2012-03-14 14:51:00
11:11 AM,37.4,33.8,87,30.05,10.0,SW,10.4,-,N/A,,Overcast,230,2012-03-14 15:11:00
11:51 AM,37.0,32.0,82,30.10,10.0,SW,8.1,-,N/A,,Overcast,230,2012-03-14 15:51:00
12:51 PM,37.0,33.1,86,30.11,9.0,WSW,6.9,-,N/A,,Overcast,240,2012-03-14 16:51:00
1:51 PM,37.9,33.1,83,30.12,10.0,SW,8.1,-,N/A,,Overcast,230,2012-03-14 17:51:00
2:51 PM,39.0,33.1,79,30.12,10.0,WSW,9.2,-,N/A,,Overcast,250,2012-03-14 18:51:00
3:17 PM,39.2,33.8,81,30.09,10.0,SW,3.5,-,N/A,,Overcast,230,2012-03-14 19:17:00
3:51 PM,39.0,32.0,76,30.14,10.0,Calm,Calm,-,N/A,,Overcast,0,2012-03-14 19:51:00
4:51 PM,39.0,32.0,76,30.15,10.0,WSW,3.5,-,N/A,,Overcast,250,2012-03-14 20:51:00
5:51 PM,39.0,32.0,76,30.17,10.0,Calm,Calm,-,N/A,,Overcast,0,2012-03-14 21:51:00
6:51 PM,37.4,33.8,87,30.14,10.0,Calm,Calm,-,N/A,,Overcast,0,2012-03-14 22:51:00
7:51 PM,35.1,34.0,96,30.21,8.0,Calm,Calm,-,N/A,,Overcast,0,2012-03-14 23:51:00
8:51 PM,34.0,33.1,96,30.23,6.0,Calm,Calm,-,N/A,,Overcast,0,2012-03-15 00:51:00
9:24 PM,35.6,33.8,93,30.18,9.0,Calm,Calm,-,N/A,,Overcast,0,2012-03-15 01:24:00
9:51 PM,35.1,34.0,96,30.23,6.0,Calm,Calm,-,N/A,,Overcast,0,2012-03-15 01:51:00
10:31 PM,33.8,32.0,93,30.18,5.0,Calm,Calm,-,N/A,,Overcast,0,2012-03-15 02:31:00
10:51 PM,33.8,32.0,93,30.19,4.0,Calm,Calm,-,N/A,,Overcast,0,2012-03-15 02:51:00
11:04 PM,33.8,32.0,93,30.19,4.0,Calm,Calm,-,N/A,,Overcast,0,2012-03-15 03:04:00
11:22 PM,33.8,32.0,93,30.19,6.0,Calm,Calm,-,N/A,,Overcast,0,2012-03-15 03:22:00
11:51 PM,33.1,30.9,92,30.25,6.0,Calm,Calm,-,N/A,,Overcast,0,2012-03-15 03:51:00